Weather History for Springfield, CO

Change the Weather History Date:

Sunday, March 31, 2013

  Actual Average Record
Temperature  
Mean Temperature 51 °F -  
Max Temperature 68 °F 63 °F 84 °F (2012)
Min Temperature 34 °F 32 °F 19 °F (2009)
Degree Days  
Heating Degree Days 14 18  
Month to date heating degree days 681 686  
Since 1 July heating degree days 4458 4693  
Cooling Degree Days 0 0  
Month to date cooling degree days 0 0  
Year to date cooling degree days 0 0  
Growing Degree Days 1 (Base 50)    
Moisture  
Dew Point 32 °F    
Average Humidity 59    
Maximum Humidity 96    
Minimum Humidity 22    
Precipitation  
Precipitation 0.00 in 0.05 in 0.17 in (2005)
Month to date precipitation 0.17 1.13  
Year to date precipitation 0.30 1.94  
Sea Level Pressure  
Sea Level Pressure 29.96 in    
Wind  
Wind Speed 11 mph (WSW)    
Max Wind Speed 25 mph    
Max Gust Speed 31 mph    
T = Trace of Precipitation, MM = Missing Value Source: NWS Daily Summary

Daily Weather History Graph

Daily Weather History Graph

Search for Another Location

Airport:

Trip Planner

Search our weather history database for the weather conditions in past years. The results will help you decide how hot, cold, wet, or windy it might be!

Date:

Astronomy

Mar. 31, 2013 Rise Set
Actual Time 6:37 AM MDT 7:12 PM MDT
Civil Twilight 6:10 AM MDT 7:38 PM MDT
Nautical Twilight 5:39 AM MDT 8:09 PM MDT
Astronomical Twilight 5:08 AM MDT 8:41 PM MDT
Moon No Moon Rise 9:32 AM MDT (3/31)
Length of Visible Light 13h 27m
Length of Day
12h 35m
Waning Gibbous, 77% of the Moon is Illuminated
Mar 31
Waning Gibbous
Apr 2
Last Quarter
Apr 10
New
Apr 18
First Quarter
Apr 25
Full

Hourly Weather History & Observations

Time (MDT) Temp. Windchill Dew Point Humidity Pressure Visibility Wind Dir Wind Speed Gust Speed Precip Events Conditions
12:56 AM 46.9 °F - 42.1 °F 83% 30.05 in - NNE 3.5 mph - N/A   Unknown
1:56 AM 46.9 °F - 43.0 °F 86% 30.04 in - North 9.2 mph - N/A   Unknown
2:56 AM 46.0 °F 41.0 °F 41.0 °F 83% 30.02 in - North 10.4 mph - N/A   Unknown
3:56 AM 43.0 °F 37.2 °F 39.0 °F 86% 30.03 in - North 10.4 mph - N/A   Unknown
4:56 AM 39.0 °F 32.3 °F 37.9 °F 96% 30.04 in - North 10.4 mph - N/A   Unknown
5:56 AM 37.0 °F 30.4 °F 35.1 °F 93% 30.04 in - NNW 9.2 mph - N/A   Unknown
6:56 AM 34.0 °F 26.6 °F 32.0 °F 92% 30.07 in - NNW 9.2 mph - N/A   Unknown
7:56 AM 42.1 °F 36.1 °F 36.0 °F 79% 30.06 in - NNW 10.4 mph - N/A   Unknown
8:56 AM 50.0 °F - 33.1 °F 52% 30.04 in - North 8.1 mph - N/A   Unknown
9:56 AM 53.1 °F - 28.0 °F 38% 30.04 in - Calm Calm - N/A   Unknown
10:56 AM 55.9 °F - 27.0 °F 33% 30.03 in - East 4.6 mph - N/A   Unknown
11:56 AM 57.0 °F - 25.0 °F 29% 30.01 in - Variable 3.5 mph - N/A   Unknown
12:56 PM 61.0 °F - 27.0 °F 27% 29.99 in - South 10.4 mph - N/A   Unknown
1:56 PM 63.0 °F - 26.1 °F 25% 29.95 in - SW 10.4 mph 23.0 mph N/A   Unknown
2:56 PM 64.9 °F - 26.1 °F 23% 29.91 in - SW 15.0 mph 26.5 mph N/A   Unknown
3:56 PM 68.0 °F - 28.0 °F 22% 29.87 in - SSW 19.6 mph 25.3 mph N/A   Unknown
4:56 PM 68.0 °F - 28.0 °F 22% 29.86 in - SW 21.9 mph 31.1 mph N/A   Unknown
5:56 PM 66.0 °F - 28.0 °F 24% 29.85 in - SSW 21.9 mph 28.8 mph N/A   Unknown
6:56 PM 62.1 °F - 28.0 °F 28% 29.86 in - SSW 18.4 mph - N/A   Unknown
7:56 PM 57.9 °F - 28.9 °F 33% 29.85 in - SSW 16.1 mph - N/A   Unknown
8:56 PM 52.0 °F - 28.9 °F 41% 29.87 in - South 10.4 mph - N/A   Unknown
9:56 PM 46.0 °F 41.9 °F 28.9 °F 51% 29.88 in - SW 8.1 mph - N/A   Unknown
10:56 PM 48.9 °F - 30.9 °F 50% 29.86 in - SW 12.7 mph - N/A   Unknown
11:56 PM 46.9 °F - 30.9 °F 54% 29.87 in - SW 6.9 mph - N/A   Unknown